This demonstration page uses our WeatherBlox Daily Observations layout. Learn more.

41.55636, -103.73856

Hourly Observations for January 17, 2019

Temp ( °F °C ) Dew Point ( °F °C ) Humidity (%) Winds ( mph kmh ) Pressure ( in mb ) Visibility ( mi km ) Precip ( " mm )
12:58 am 00:58 Mostly Cloudy 36 2.3 28 -2.1 73 73 WNW 16 26 30.03 1017 10 16.0934 N/A
1:58 am 01:58 Partly Cloudy 35 1.9 28 -2.4 73 73 NW 16 26 30.05 1018 10 16.0934 N/A
2:58 am 02:58 Clear 35 1.6 28 -2.5 74 74 WNW 13 20 30.06 1018 10 16.0934 N/A
3:58 am 03:58 Clear 34 1.3 27 -2.6 76 76 WNW 15 24 30.06 1018 10 16.0934 N/A
4:58 am 04:58 Clear 35 1.7 27 -2.9 72 72 WNW 18 30 30.06 1018 10 16.0934 N/A
5:58 am 05:58 Clear 35 1.6 26 -3.4 70 70 WNW 18 30 30.06 1018 10 16.0934 N/A
6:58 am 06:58 Partly Cloudy 35 1.5 25 -4 67 67 WNW 20 31 30.06 1018 10 16.0934 N/A
7:58 am 07:58 Mostly Cloudy 36 2 24 -4.7 62 62 NW 20 31 30.05 1018 10 16.0934 N/A
8:58 am 08:58 Clear 32 -0.2 22 -5.5 68 68 W 9 15 30.09 1019 10 16.0934 N/A
9:58 am 09:58 Clear 31 -0.3 22 -5.8 67 67 WNW 13 20 30.08 1019 10 16.0934 N/A
10:58 am 10:58 Clear 30 -1.2 21 -6.2 69 69 W 10 17 30.07 1018 10 16.0934 N/A
11:58 am 11:58 Clear 32 0 23 -5.2 68 68 WNW 21 33 30.06 1018 10 16.0934 0 0
12:58 pm 12:58 Clear 30 -1.1 22 -5.6 72 72 WNW 9 15 30.06 1018 10 16.0934 N/A
1:58 pm 13:58 Clear 29 -1.7 21 -6.2 72 72 WNW 10 17 30.08 1019 10 16.0934 N/A
2:58 pm 14:58 Sunny 31 -0.3 21 -6.1 65 65 W 7 11 30.06 1018 10 16.0934 N/A
3:58 pm 15:58 Mostly Cloudy 37 2.6 24 -4.3 61 61 Calm 30.04 1017 10 16.0934 N/A
4:58 pm 16:58 Mostly Sunny 40 4.7 25 -3.8 54 54 SSW 3 6 30.04 1017 10 16.0934 N/A
5:58 pm 17:58 Partly Cloudy 43 6.1 27 -2.9 53 53 S 13 20 30 1016 10 16.0934 N/A
6:58 pm 18:58 Sunny 45 7.1 24 -4.3 44 44 SSW 17 28 29.95 1014 10 16.0934 N/A
7:58 pm 19:58 Partly Cloudy 48 8.9 24 -4.3 39 39 SSW 18 30 29.87 1011 10 16.0934 N/A
8:58 pm 20:58 Mostly Cloudy 46 8 25 -3.7 44 44 S 10 17 29.89 1012 10 16.0934 N/A
9:58 pm 21:58 Mostly Cloudy 46 7.5 25 -3.9 45 45 S 12 19 29.88 1012 10 16.0934 N/A
10:58 pm 22:58 Cloudy 44 6.6 24 -4.5 45 45 S 9 15 29.88 1012 10 16.0934 N/A
11:58 pm 23:58 Cloudy 42 5.5 24 -4.2 50 50 S 8 13 29.85 1011 10 16.0934 N/A

Powered by AerisWeather